Location: Redwood Loop Observatory
(43.9900°N, 124.0900°W)
Time: 00:52:19
(UTC-07:00)

Envisat - Visible Passes

Search period start: 21 October 2019 00:00
Search period end: 31 October 2019 00:00
Orbit: 764 x 766 km, 98.1° (Epoch: 21 October)

Date Brightness Start Highest point End Pass type
(mag) Time Alt. Az. Time Alt. Az. Time Alt. Az.
21 Oct 6.2 07:00:56 10° NE 07:04:08 17° E 07:07:19 10° SE visible
21 Oct 4.3 19:54:45 10° SSW 19:59:32 41° W 20:04:21 10° NNW visible
22 Oct 3.0 19:17:36 10° SSE 19:22:41 89° W 19:27:48 10° NNW visible
22 Oct 6.2 21:01:07 10° WSW 21:02:24 11° W 21:03:43 10° WNW visible
23 Oct 3.4 18:41:16 10° SE 18:46:02 43° ENE 18:50:49 10° N visible
23 Oct 5.3 20:21:07 10° SSW 20:25:13 24° W 20:29:21 10° NW visible
24 Oct 6.4 06:50:24 10° ENE 06:52:44 13° E 06:55:03 10° ESE visible
24 Oct 3.9 19:43:17 10° S 19:48:13 52° W 19:53:12 10° NNW visible
25 Oct 2.9 19:06:23 10° SSE 19:11:26 73° ENE 19:16:31 10° N visible
25 Oct 6.0 20:48:21 10° WSW 20:51:00 14° W 20:53:39 10° WNW visible
26 Oct 5.9 07:14:32 10° NE 07:18:32 23° E 07:22:29 10° SE visible
26 Oct 4.9 20:09:25 10° SSW 20:13:52 30° W 20:18:20 10° NNW visible
27 Oct 3.4 19:31:53 10° S 19:36:56 66° WSW 19:42:00 10° NNW visible
28 Oct 3.0 18:55:14 10° SSE 19:00:12 58° ENE 19:05:12 10° N visible
28 Oct 5.7 20:36:12 10° SW 20:39:36 18° W 20:43:01 10° NW visible
29 Oct 6.0 07:03:42 10° NE 07:07:09 18° E 07:10:35 10° SE visible
29 Oct 4.5 19:57:49 10° SSW 20:02:31 38° W 20:07:16 10° NNW visible
30 Oct 3.1 19:20:34 10° SSE 19:25:39 83° WSW 19:30:46 10° NNW visible
